This demonstration page uses our WeatherBlox Daily Observations layout. Learn more.

Hourly Observations for May 7, 2019

Temp ( °F °C ) Dew Point ( °F °C ) Humidity (%) Winds ( mph kmh ) Pressure ( in mb ) Visibility ( mi km ) Precip ( " mm )
12:15 am 00:15 Clear 59 15 57 14 94 94 ESE 6 9 30.12 1020 10 16.09344 0 0
12:36 am 00:36 Clear 63 17 57 14 83 83 SE 5 7 30.12 1020 10 16.09344 0 0
12:55 am 00:55 Clear 59 15 57 14 94 94 SE 5 7 30.12 1020 10 16.09344 0 0
1:15 am 01:15 Clear 57 14 55 13 94 94 Calm 30.12 1020 10 16.09344 0 0
1:35 am 01:35 Clear 61 16 59 15 94 94 SSE 5 7 30.12 1020 10 16.09344 0 0
1:55 am 01:55 Clear 55 13 55 13 100 100 S 3 6 30.12 1020 10 16.09344 0 0
2:15 am 02:15 Clear 54 12 54 12 100 100 SSW 3 6 30.12 1020 10 16.09344 0 0
2:35 am 02:35 Clear 54 12 54 12 100 100 Calm 30.12 1020 10 16.09344 0 0
2:55 am 02:55 Clear 54 12 54 12 100 100 Calm 30.12 1020 10 16.09344 0 0
3:15 am 03:15 Clear 55 13 55 13 100 100 Calm 30.12 1020 10 16.09344 0 0
3:35 am 03:35 Clear 54 12 54 12 100 100 SSW 3 6 30.12 1020 10 16.09344 0 0
3:55 am 03:55 Clear 54 12 54 12 100 100 Calm 30.12 1020 10 16.09344 0 0
4:15 am 04:15 Clear 54 12 54 12 100 100 Calm 30.12 1020 10 16.09344 0 0
4:35 am 04:35 Clear 52 11 52 11 100 100 Calm 30.12 1020 10 16.09344 0 0
4:55 am 04:55 Clear 52 11 52 11 100 100 Calm 30.12 1020 10 16.09344 0 0
5:15 am 05:15 Clear 54 12 54 12 100 100 Calm 30.12 1020 10 16.09344 0 0
5:35 am 05:35 Clear 52 11 52 11 100 100 Calm 30.12 1020 10 16.09344 0 0
5:55 am 05:55 Clear 52 11 52 11 100 100 Calm 30.12 1020 10 16.09344 0 0
6:15 am 06:15 Sunny 50 10 50 10 100 100 Calm 30.15 1021 10 16.09344 0 0
6:35 am 06:35 Sunny 52 11 52 11 100 100 Calm 30.12 1020 10 16.09344 0 0
6:55 am 06:55 Sunny 52 11 52 11 100 100 Calm 30.15 1021 10 16.09344 0 0
7:15 am 07:15 Sunny 54 12 54 12 100 100 Calm 30.15 1021 10 16.09344 0 0
7:35 am 07:35 Sunny 55 13 55 13 100 100 Calm 30.15 1021 10 16.09344 0 0
7:55 am 07:55 Sunny 57 14 55 13 94 94 Calm 30.15 1021 10 16.09344 0 0
8:15 am 08:15 Sunny 61 16 57 14 88 88 Calm 30.15 1021 10 16.09344 0 0
8:35 am 08:35 Sunny 63 17 59 15 88 88 Calm 30.15 1021 10 16.09344 0 0
8:55 am 08:55 Sunny 64 18 59 15 83 83 Calm 30.15 1021 10 16.09344 0 0
9:15 am 09:15 Sunny 68 20 61 16 78 78 W 3 6 30.18 1022 10 16.09344 0 0
9:35 am 09:35 Sunny 70 21 59 15 69 69 Calm 30.15 1021 10 16.09344 0 0
9:55 am 09:55 Sunny 70 21 59 15 69 69 S 3 6 30.18 1022 10 16.09344 0 0
10:15 am 10:15 Sunny 72 22 59 15 65 65 Calm 30.18 1022 10 16.09344 0 0
10:35 am 10:35 Sunny 73 23 55 13 53 53 Calm 30.18 1022 10 16.09344 0 0
10:55 am 10:55 Sunny 73 23 55 13 53 53 SE 3 6 30.18 1022 10 16.09344 0 0
11:15 am 11:15 Sunny 75 24 55 13 50 50 Calm 30.18 1022 10 16.09344 0 0
11:35 am 11:35 Sunny 77 25 55 13 47 47 Calm 30.18 1022 10 16.09344 0 0
11:55 am 11:55 Sunny 77 25 54 12 44 44 SSW 5 7 30.18 1022 10 16.09344 0 0
12:15 pm 12:15 Sunny 77 25 54 12 44 44 S 6 9 30.15 1021 10 16.09344 0 0
12:35 pm 12:35 Sunny 79 26 55 13 45 45 S 6 9 30.15 1021 10 16.09344 0 0
12:55 pm 12:55 Sunny 79 26 55 13 45 45 SSW 12 19 30.15 1021 10 16.09344 0 0
1:15 pm 13:15 Sunny 81 27 55 13 42 42 WSW 9 15 30.15 1021 10 16.09344 0 0
1:35 pm 13:35 Sunny 79 26 57 14 48 48 S 10 17 30.15 1021 10 16.09344 0 0
1:55 pm 13:55 Partly Cloudy 81 27 61 16 51 51 SW 6 9 30.15 1021 10 16.09344 0 0
2:15 pm 14:15 Sunny 81 27 61 16 51 51 SW 6 9 30.15 1021 10 16.09344 0 0
2:35 pm 14:35 Partly Cloudy 81 27 61 16 51 51 SW 5 7 30.12 1020 10 16.09344 0 0
2:55 pm 14:55 Partly Cloudy 82 28 59 15 45 45 W 6 9 30.12 1020 10 16.09344 0 0
3:15 pm 15:15 Sunny 82 28 59 15 45 45 SSW 3 6 30.12 1020 10 16.09344 0 0
3:35 pm 15:35 Partly Cloudy 82 28 61 16 48 48 SW 5 7 30.09 1019 10 16.09344 0 0
3:55 pm 15:55 Partly Cloudy 82 28 59 15 45 45 W 3 6 30.09 1019 10 16.09344 0 0
4:15 pm 16:15 Mostly Cloudy 81 27 59 15 48 48 S 7 11 30.09 1019 10 16.09344 0 0
4:35 pm 16:35 Cloudy 81 27 59 15 48 48 SW 9 15 30.09 1019 10 16.09344 0 0
4:55 pm 16:55 Partly Cloudy 81 27 59 15 48 48 S 7 11 30.09 1019 10 16.09344 0 0
5:15 pm 17:15 Partly Cloudy 82 28 59 15 45 45 S 6 9 30.09 1019 10 16.09344 0 0
5:35 pm 17:35 Sunny 81 27 63 17 54 54 S 15 24 30.09 1019 10 16.09344 0 0
5:55 pm 17:55 Sunny 81 27 61 16 51 51 S 12 19 30.09 1019 10 16.09344 0 0
6:15 pm 18:15 Sunny 79 26 61 16 54 54 S 10 17 30.09 1019 10 16.09344 0 0
6:35 pm 18:35 Sunny 79 26 61 16 54 54 SSW 8 13 30.09 1019 10 16.09344 0 0
6:55 pm 18:55 Sunny 79 26 61 16 54 54 SW 9 15 30.09 1019 10 16.09344 0 0
7:15 pm 19:15 Sunny 77 25 61 16 57 57 SSW 5 7 30.09 1019 10 16.09344 0 0
7:35 pm 19:35 Sunny 77 25 61 16 57 57 SSW 6 9 30.09 1019 10 16.09344 0 0
7:55 pm 19:55 Sunny 75 24 63 17 65 65 S 6 9 30.09 1019 10 16.09344 0 0
8:15 pm 20:15 Clear 73 23 63 17 69 69 S 7 11 30.09 1019 10 16.09344 0 0
8:35 pm 20:35 Clear 73 23 63 17 69 69 SSW 5 7 30.09 1019 10 16.09344 0 0
8:55 pm 20:55 Clear 73 23 63 17 69 69 S 3 6 30.09 1019 10 16.09344 0 0
9:15 pm 21:15 Clear 72 22 63 17 73 73 S 3 6 30.12 1020 10 16.09344 0 0
9:35 pm 21:35 Clear 72 22 63 17 73 73 Calm 30.12 1020 10 16.09344 0 0
9:55 pm 21:55 Clear 72 22 63 17 73 73 S 3 6 30.12 1020 10 16.09344 0 0
10:15 pm 22:15 Clear 70 21 63 17 78 78 SSW 5 7 30.12 1020 10 16.09344 0 0
10:35 pm 22:35 Clear 68 20 63 17 83 83 S 3 6 30.12 1020 10 16.09344 0 0
10:55 pm 22:55 Clear 68 20 63 17 83 83 SSW 5 7 30.12 1020 10 16.09344 0 0
11:15 pm 23:15 Clear 68 20 63 17 83 83 S 3 6 30.12 1020 10 16.09344 0 0
11:35 pm 23:35 Clear 68 20 63 17 83 83 Calm 30.12 1020 10 16.09344 0 0
11:55 pm 23:55 Clear 64 18 63 17 94 94 Calm 30.12 1020 10 16.09344 0 0

Powered by AerisWeather